Location: Mentone
(34.5413°N, 85.5351°W)
Time: 22:29:53
(UTC-05:00)

AO-Echo - Visible Passes

Search period start: 27 July 2015 00:00
Search period end: 06 August 2015 00:00
Orbit: 694 x 811 km, 98.3° (Epoch: 27 July)

Date Brightness Start Highest point End Pass type
(mag) Time Alt. Az. Time Alt. Az. Time Alt. Az.
27 Jul ? 02:29:09 10° NNE 02:32:49 50° NNE 02:32:49 50° NNE visible
28 Jul ? 01:49:20 10° NE 01:51:55 24° ENE 01:51:55 24° ENE visible
28 Jul ? 03:28:21 10° NNW 03:31:51 23° WNW 03:31:51 23° WNW visible
29 Jul ? 02:47:18 10° N 02:50:58 46° NNW 02:50:58 46° NNW visible
30 Jul ? 02:07:05 10° NNE 02:10:04 33° NE 02:10:04 33° NE visible
30 Jul ? 03:47:17 10° NNW 03:50:00 16° WNW 03:50:00 16° WNW visible
31 Jul ? 01:28:00 10° NE 01:29:10 14° ENE 01:29:10 14° ENE visible
31 Jul ? 03:05:37 10° N 03:09:06 34° NW 03:09:06 34° NW visible
01 Aug ? 02:25:03 10° NNE 02:28:12 40° NNE 02:28:12 40° NNE visible
02 Aug ? 01:45:20 10° NE 01:47:17 20° ENE 01:47:17 20° ENE visible
02 Aug ? 03:24:07 10° NNW 03:27:14 24° NW 03:27:14 24° NW visible
03 Aug ? 02:43:09 10° N 02:46:19 40° N 02:46:19 40° N visible
04 Aug ? 02:03:00 10° NNE 02:05:25 26° NE 02:05:25 26° NE visible
04 Aug ? 03:42:57 10° NNW 03:45:21 16° WNW 03:45:21 16° WNW visible
05 Aug ? 01:24:07 10° NE 01:24:30 11° ENE 01:24:30 11° ENE visible
05 Aug ? 03:01:25 10° N 03:04:27 32° NNW 03:04:27 32° NNW visible
